Back to catalog

NOAA 17 DEB

LostPO
NORAD 49489·DEBRIS·🇺🇸 United States

Launched Jun 24, 2002 from Vandenberg Space Force Base

Loading…

Next Passes (next 24 hours)

TLE

StaleSource: Space-Track

Epoch: Jul 14, 2026, 10:26 UTC

1 49489U 02032DT  26195.43530430  .00221844  00000-0  46735-2 0  9994
2 49489  98.7533 269.9060 0018746 226.9238 133.0437 15.44232868261699

Track NOAA 17 DEB in real time with AllMySat

Download on the App Store